Powrót do katalogu

NOAA 16 DEB

AktywnyPO
NORAD 41149·DEBRIS·🇺🇸 United States

Wystrzelony Sep 21, 2000 z Vandenberg Space Force Base

Loading…

Następne Przeloty (najbliższe 24 godziny)

TLE

ŚwieżeSource: Space-Track

Epoka: Sep 14, 2026, 05:48 UTC

1 41149U 00055CG  26257.24227862  .00023601  00000-0  24690-2 0  9999
2 41149  98.9159 184.0180 0029695   5.2456 354.9063 14.89310940566991

Śledź NOAA 16 DEB w czasie rzeczywistym z AllMySat

Download on the App Store